• In Latvia
  • List of Countries
  • For 7 days
  • Water Temperature
  • Satellite Maps
  • Weather Map
  • Weather Widgets
  • user-avatar
    Login

    Hourly Weather Kandava

    Today, 19 November, Sunday

    Time Temperature Precipitation Wind Pressure Humidity
    00:00 0°C° 0.2 mm 7 mps 742 mmHg 79%
    01:00 0°C° 0.2 mm 7 mps 741 mmHg 80%
    02:00 +1°C° 0 mm 6 mps 741 mmHg 82%
    03:00 +1°C° 0.2 mm 6 mps 741 mmHg 84%
    04:00 +1°C° 0.2 mm 5 mps 741 mmHg 86%
    05:00 +1°C° 0.2 mm 4 mps 741 mmHg 88%
    06:00 +1°C° 0 mm 4 mps 741 mmHg 89%
    07:00 0°C° 0 mm 4 mps 740 mmHg 91%
    08:00 0°C° 0 mm 3 mps 740 mmHg 93%
    09:00 +1°C° 0 mm 3 mps 740 mmHg 90%
    10:00 +1°C° 0 mm 3 mps 741 mmHg 88%
    11:00 +2°C° 0 mm 3 mps 741 mmHg 85%
    12:00 +2°C° 0 mm 3 mps 741 mmHg 85%
    13:00 +3°C° 0 mm 3 mps 741 mmHg 84%
    14:00 +3°C° 0 mm 3 mps 741 mmHg 84%
    15:00 +2°C° 0.1 mm 3 mps 741 mmHg 86%
    16:00 +2°C° 0.1 mm 3 mps 741 mmHg 88%
    17:00 +2°C° 0.1 mm 3 mps 741 mmHg 90%
    18:00 +2°C° 0.3 mm 3 mps 741 mmHg 91%
    19:00 +3°C° 0.3 mm 2 mps 741 mmHg 92%
    20:00 +3°C° 0.3 mm 2 mps 741 mmHg 93%
    21:00 +3°C° 0.5 mm 2 mps 741 mmHg 92%
    22:00 +2°C° 0.5 mm 2 mps 741 mmHg 92%
    23:00 +2°C° 0.5 mm 2 mps 742 mmHg 92%

    Tomorrow, 20 November, Monday

    Time Temperature Precipitation Wind Pressure Humidity
    00:00 +2°C° 0.4 mm 2 mps 742 mmHg 92%
    01:00 +2°C° 0.4 mm 2 mps 742 mmHg 93%
    02:00 +2°C° 0.4 mm 2 mps 742 mmHg 93%
    03:00 +2°C° 0.5 mm 2 mps 743 mmHg 94%
    04:00 +2°C° 0.5 mm 2 mps 743 mmHg 94%
    05:00 +1°C° 0.5 mm 2 mps 743 mmHg 95%
    06:00 +1°C° 0.5 mm 2 mps 743 mmHg 95%
    07:00 +1°C° 0.5 mm 2 mps 743 mmHg 95%
    08:00 +1°C° 0.5 mm 2 mps 744 mmHg 94%
    09:00 +2°C° 0.3 mm 2 mps 744 mmHg 93%
    10:00 +2°C° 0.3 mm 2 mps 744 mmHg 92%
    11:00 +2°C° 0.3 mm 2 mps 745 mmHg 91%
    12:00 +2°C° 0.1 mm 2 mps 745 mmHg 90%
    13:00 +2°C° 0.1 mm 2 mps 745 mmHg 90%
    14:00 +3°C° 0.1 mm 2 mps 745 mmHg 89%
    15:00 +2°C° 0.1 mm 2 mps 746 mmHg 89%
    16:00 +2°C° 0.1 mm 2 mps 746 mmHg 90%
    17:00 +3°C° 0.1 mm 1 mps 746 mmHg 90%
    18:00 +3°C° 0 mm 1 mps 746 mmHg 90%
    19:00 +2°C° 0 mm 1 mps 747 mmHg 89%
    20:00 +2°C° 0 mm 1 mps 747 mmHg 89%
    21:00 +2°C° 0 mm 1 mps 747 mmHg 89%
    22:00 +1°C° 0 mm 1 mps 747 mmHg 89%
    23:00 +1°C° 0 mm 1 mps 748 mmHg 89%

    Day after tomorrow, 21 November, Tuesday

    Time Temperature Precipitation Wind Pressure Humidity
    00:00 +1°C° 0 mm 1 mps 748 mmHg 89%
    01:00 +1°C° 0 mm 1 mps 748 mmHg 89%
    02:00 +1°C° 0 mm 1 mps 748 mmHg 89%
    03:00 +1°C° 0 mm 1 mps 748 mmHg 89%
    04:00 +1°C° 0 mm 1 mps 748 mmHg 89%
    05:00 +1°C° 0 mm 1 mps 748 mmHg 89%
    06:00 +1°C° 0 mm 1 mps 748 mmHg 89%
    07:00 +1°C° 0 mm 1 mps 748 mmHg 89%
    08:00 +1°C° 0 mm 1 mps 749 mmHg 90%
    09:00 +2°C° 0 mm 1 mps 749 mmHg 88%
    10:00 +2°C° 0 mm 1 mps 749 mmHg 87%
    11:00 +3°C° 0 mm 1 mps 749 mmHg 86%
    12:00 +3°C° 0 mm 1 mps 749 mmHg 85%
    13:00 +3°C° 0 mm 1 mps 749 mmHg 85%
    14:00 +4°C° 0 mm 1 mps 749 mmHg 84%
    15:00 +3°C° 0 mm 1 mps 750 mmHg 85%
    16:00 +2°C° 0 mm 1 mps 750 mmHg 87%
    17:00 +2°C° 0 mm 1 mps 750 mmHg 88%
    18:00 +1°C° 0 mm 1 mps 750 mmHg 88%
    19:00 +1°C° 0 mm 1 mps 751 mmHg 88%
    20:00 +1°C° 0 mm 1 mps 751 mmHg 88%
    21:00 +1°C° 0 mm 1 mps 751 mmHg 88%
    22:00 0°C° 0 mm 1 mps 752 mmHg 89%
    23:00 0°C° 0 mm 1 mps 752 mmHg 89%

    22 November, Wednesday

    Time Temperature Precipitation Wind Pressure Humidity
    00:00 0°C° 0 mm 1 mps 752 mmHg 90%
    01:00 0°C° 0 mm 1 mps 753 mmHg 90%
    02:00 0°C° 0 mm 1 mps 753 mmHg 91%
    03:00 0°C° 0 mm 1 mps 753 mmHg 91%
    04:00 0°C° 0 mm 1 mps 753 mmHg 91%
    05:00 0°C° 0 mm 1 mps 754 mmHg 91%
    06:00 0°C° 0 mm 1 mps 754 mmHg 91%
    07:00 0°C° 0 mm 1 mps 754 mmHg 91%
    08:00 0°C° 0 mm 1 mps 754 mmHg 91%
    09:00 -1°C° 0 mm 2 mps 754 mmHg 90%
    10:00 -1°C° 0 mm 2 mps 755 mmHg 89%
    11:00 +1°C° 0 mm 2 mps 755 mmHg 87%
    12:00 0°C° 0 mm 3 mps 755 mmHg 86%
    13:00 +1°C° 0 mm 3 mps 755 mmHg 85%
    14:00 +1°C° 0 mm 3 mps 755 mmHg 84%
    15:00 0°C° 0 mm 3 mps 755 mmHg 85%
    16:00 0°C° 0 mm 3 mps 755 mmHg 87%
    17:00 -1°C° 0 mm 3 mps 755 mmHg 88%
    18:00 -2°C° 0 mm 4 mps 754 mmHg 88%
    19:00 -2°C° 0 mm 4 mps 754 mmHg 87%
    20:00 -2°C° 0 mm 4 mps 754 mmHg 87%
    21:00 -2°C° 0 mm 5 mps 754 mmHg 86%
    22:00 -2°C° 0 mm 5 mps 754 mmHg 84%
    23:00 -2°C° 0 mm 6 mps 754 mmHg 83%

    23 November, Thursday

    Time Temperature Precipitation Wind Pressure Humidity
    00:00 -2°C° 0.1 mm 6 mps 753 mmHg 83%
    01:00 -2°C° 0.1 mm 7 mps 753 mmHg 83%
    02:00 -2°C° 0.1 mm 7 mps 753 mmHg 83%
    03:00 -2°C° 0.9 mm 7 mps 752 mmHg 85%
    04:00 -2°C° 0.9 mm 7 mps 752 mmHg 87%
    05:00 -1°C° 0.9 mm 7 mps 751 mmHg 89%
    06:00 -1°C° 0.3 mm 7 mps 751 mmHg 90%
    07:00 -1°C° 0.3 mm 7 mps 751 mmHg 91%
    08:00 +1°C° 0.3 mm 6 mps 751 mmHg 92%
    09:00 +1°C° 0 mm 6 mps 751 mmHg 92%
    10:00 +2°C° 0 mm 6 mps 751 mmHg 92%
    11:00 +2°C° 0 mm 6 mps 751 mmHg 92%
    12:00 +3°C° 0 mm 6 mps 750 mmHg 91%
    13:00 +3°C° 0 mm 6 mps 750 mmHg 90%
    14:00 +3°C° 0 mm 6 mps 750 mmHg 89%
    15:00 +3°C° 0.1 mm 6 mps 750 mmHg 90%
    16:00 +3°C° 0.1 mm 6 mps 750 mmHg 90%
    17:00 +3°C° 0.1 mm 6 mps 750 mmHg 90%
    18:00 +3°C° 0 mm 6 mps 750 mmHg 90%
    19:00 +5°C° 0 mm 5 mps 750 mmHg 91%
    20:00 +5°C° 0 mm 5 mps 750 mmHg 91%
    21:00 +6°C° 0 mm 5 mps 750 mmHg 92%
    22:00 +6°C° 0 mm 5 mps 750 mmHg 93%
    23:00 +6°C° 0 mm 5 mps 751 mmHg 94%

    24 November, Friday

    Time Temperature Precipitation Wind Pressure Humidity
    00:00 +6°C° 0 mm 4 mps 751 mmHg 94%
    01:00 +7°C° 0 mm 4 mps 751 mmHg 94%
    02:00 +7°C° 0 mm 4 mps 752 mmHg 95%
    03:00 +7°C° 0 mm 4 mps 752 mmHg 95%
    04:00 +7°C° 0 mm 3 mps 752 mmHg 95%
    05:00 +7°C° 0 mm 3 mps 752 mmHg 96%
    06:00 +7°C° 0 mm 3 mps 753 mmHg 96%
    07:00 +7°C° 0 mm 3 mps 753 mmHg 96%
    08:00 +7°C° 0 mm 3 mps 754 mmHg 96%
    09:00 +7°C° 0 mm 3 mps 754 mmHg 95%
    10:00 +7°C° 0 mm 3 mps 754 mmHg 95%
    11:00 +7°C° 0 mm 3 mps 755 mmHg 94%
    12:00 +8°C° 0 mm 3 mps 755 mmHg 94%
    13:00 +8°C° 0 mm 3 mps 755 mmHg 94%
    14:00 +9°C° 0 mm 3 mps 755 mmHg 94%
    15:00 +8°C° 0 mm 3 mps 755 mmHg 95%
    16:00 +8°C° 0 mm 3 mps 755 mmHg 95%
    17:00 +8°C° 0 mm 3 mps 755 mmHg 95%
    18:00 +7°C° 0 mm 4 mps 756 mmHg 95%
    19:00 +7°C° 0 mm 4 mps 756 mmHg 94%
    20:00 +7°C° 0 mm 4 mps 756 mmHg 94%
    21:00 +7°C° 0 mm 4 mps 756 mmHg 94%
    22:00 +7°C° 0 mm 5 mps 757 mmHg 94%
    23:00 +7°C° 0 mm 5 mps 757 mmHg 93%
    Show more